Regional Weather Roundup
Issued by NWS

Home | Current Version | Previous Version | Text Only | Print | Product List | Glossary Off
Versions: 1 2 3 4 5 6 7 8 9 10 11 12 13 14 15 16 17 18 19 20 21 22 23 24 25 26 27 28 29 30 31 32 33 34 35 36 37 38 39 40 41 42 43 44 45 46 47 48 49 50

000
ASUS43 KLMK 171410
RWRKY
KENTUCKY REGIONAL WEATHER ROUNDUP
NATIONAL WEATHER SERVICE LOUISVILLE KY
900 AM EST SUN DEC 17 2017

NOTE "FAIR" INDICATES FEW OR NO CLOUDS BELOW 12,000 FEET
WITH NO SIGNIFICANT WEATHER AND/OR OBSTRUCTIONS TO VISIBILITY.

KYZ001>023-026-027-061>063-070>075-171500-
WESTERN AND SOUTH CENTRAL KENTUCKY

CITY           SKY/WX    TMP DP  RH WIND       PRES   REMARKS
PADUCAH        LGT RAIN  41  36  82 MISG      30.12F
HENDERSON      LGT RAIN  43  34  70 S10       30.17R
OWENSBORO      LGT RAIN  42  33  70 S9        30.16F
HOPKINSVILLE   LGT RAIN  41  34  76 S9        30.17F
BOWLING GREEN  CLOUDY    43  32  65 S6        30.22S
GLASGOW        CLOUDY    42  30  63 CALM      30.22S
$$

KYZ024-025-028>034-038-045-046-053-171500-
NORTH CENTRAL KENTUCKY

CITY           SKY/WX    TMP DP  RH WIND       PRES   REMARKS
LOUISVILLE/SDF CLOUDY    43  31  62 SE9       30.18F
LOUISVILLE/LOU CLOUDY    42  32  67 S7        30.20F
FORT KNOX      CLOUDY    41  31  66 SE6       30.15F
$$

KYZ035>037-039>044-047>052-055>060-089>105-171500-
NORTHEAST KENTUCKY

CITY           SKY/WX    TMP DP  RH WIND       PRES   REMARKS
LEXINGTON      PTSUNNY   41  29  62 S8        30.22R
COVINGTON      CLOUDY    39  31  72 S8        30.18S WCI  33
FRANKFORT      MOSUNNY   41  29  62 S6        30.20R
$$

KYZ054-064>069-076>088-106>120-171500-
SOUTHEAST KENTUCKY

CITY           SKY/WX    TMP DP  RH WIND       PRES   REMARKS
JACKSON        PTSUNNY   40  26  57 CALM      30.23R
LONDON         CLOUDY    37  29  72 CALM      30.26R
SOMERSET       DRIZZLE   37  32  81 S3        30.27F
MIDDLESBORO    CLOUDY    33  30  90 CALM      30.29R
MONTICELLO     CLOUDY    40  32  73 NE7       30.26F
$$





USA.gov is the U.S. government's official web portal to all federal, state and local government web resources and services.